Location: Carri�res
(48.9069°N, 2.1792°E)
Time: 13:08:56
(UTC+00:00)

YAOGAN 1 - Pass Details

Date: 17 January 2021
Orbit: 618 x 620 km, 97.9° (Epoch: 25 February)

Event Time Altitude Azimuth Distance (km) Brightness Sun altitude
Rises 19:14:30 0° 192° (SSW) 2,885 6.1 -27.2°
Reaches altitude 10° 19:16:54 10° 203° (SSW) 1,985 5.4 -27.6°
Maximum altitude 19:20:41 30° 265° (W) 1,129 4.4 -28.2°
Drops below altitude 10° 19:24:31 10° 326° (NNW) 1,999 5.5 -28.9°
Sets 19:26:57 0° 338° (NNW) 2,911 6.3 -29.3°
